Time,TemperatureF,DewpointF,PressureIn,WindDirection,WindDirectionDegrees,WindSpeedMPH,WindSpeedGustMPH,Humidity,HourlyPrecipIn,Conditions,Clouds,dailyrainin,SolarRadiationWatts/m^2,SoftwareType,DateUTC
2013-12-16 00:01:00,35.8,29.6,30.07,NNE,30,0.0,0.0,78,0.00,RA,,0.00,0.0,WeatherDisplay:10.37,2013-12-16 05:01:00,
2013-12-16 00:06:00,35.8,29.6,30.07,NNE,30,0.0,0.0,78,0.00,RA,,0.00,0.0,WeatherDisplay:10.37,2013-12-16 05:06:00,
2013-12-16 00:11:00,35.6,29.4,30.07,NNE,30,0.0,0.0,78,0.00,CLR,,0.00,0.0,WeatherDisplay:10.37,2013-12-16 05:11:00,
2013-12-16 00:16:00,35.6,29.1,30.07,NNE,30,0.0,0.0,77,0.00,CLR,,0.00,0.0,WeatherDisplay:10.37,2013-12-16 05:16:00,
2013-12-16 00:21:00,35.6,29.1,30.06,NNE,30,0.0,0.0,77,0.00,CLR,,0.00,0.0,WeatherDisplay:10.37,2013-12-16 05:21:00,
2013-12-16 00:26:00,35.6,29.1,30.06,NNE,30,0.0,0.0,77,0.00,CLR,,0.00,0.0,WeatherDisplay:10.37,2013-12-16 05:26:00,
2013-12-16 00:31:00,35.6,29.1,30.06,NNE,30,0.0,0.0,77,0.00,CLR,,0.00,0.0,WeatherDisplay:10.37,2013-12-16 05:31:00,
2013-12-16 00:36:00,35.6,29.4,30.06,NNE,30,0.0,0.0,78,0.00,CLR,,0.00,0.0,WeatherDisplay:10.37,2013-12-16 05:36:00,
2013-12-16 00:41:00,35.5,29.3,30.06,NNE,30,0.0,0.0,78,0.00,CLR,,0.00,0.0,WeatherDisplay:10.37,2013-12-16 05:41:00,
2013-12-16 00:46:00,35.5,29.3,30.07,NNE,30,0.0,0.0,78,0.00,CLR,,0.00,0.0,WeatherDisplay:10.37,2013-12-16 05:46:00,
2013-12-16 00:51:00,35.3,29.1,30.07,NNE,30,0.0,0.0,78,0.00,CLR,,0.00,0.0,WeatherDisplay:10.37,2013-12-16 05:51:00,
2013-12-16 00:56:00,35.2,29.1,30.07,NNE,30,0.0,0.0,78,0.00,CLR,,0.00,0.0,WeatherDisplay:10.37,2013-12-16 05:56:00,
2013-12-16 01:01:00,35.2,29.0,30.07,NNE,30,0.0,0.0,78,0.00,CLR,,0.00,0.0,WeatherDisplay:10.37,2013-12-16 06:01:00,
2013-12-16 01:11:00,34.9,29.0,30.06,NNE,30,0.0,0.0,79,0.00,CLR,,0.00,0.0,WeatherDisplay:10.37,2013-12-16 06:11:00,
2013-12-16 01:16:00,34.9,29.0,30.07,NNE,30,0.0,0.0,79,0.00,CLR,,0.00,0.0,WeatherDisplay:10.37,2013-12-16 06:16:00,
2013-12-16 01:21:00,34.9,29.0,30.07,NNE,30,0.0,0.0,79,0.00,CLR,,0.00,0.0,WeatherDisplay:10.37,2013-12-16 06:21:00,
2013-12-16 01:26:00,34.7,28.9,30.07,NNE,30,0.0,0.0,79,0.00,CLR,,0.00,0.0,WeatherDisplay:10.37,2013-12-16 06:26:00,
2013-12-16 01:31:00,34.7,28.5,30.07,NNE,30,0.0,0.0,78,0.00,CLR,,0.00,0.0,WeatherDisplay:10.37,2013-12-16 06:31:00,
2013-12-16 01:36:00,34.7,28.5,30.06,NNE,30,0.0,0.0,78,0.00,CLR,,0.00,0.0,WeatherDisplay:10.37,2013-12-16 06:36:00,
2013-12-16 01:41:00,34.7,28.9,30.06,NNE,30,0.0,0.0,79,0.00,CLR,,0.00,0.0,WeatherDisplay:10.37,2013-12-16 06:41:00,
2013-12-16 01:46:00,34.7,28.5,30.06,NNE,30,0.0,0.0,78,0.00,CLR,,0.00,0.0,WeatherDisplay:10.37,2013-12-16 06:46:00,
2013-12-16 01:51:00,34.7,28.5,30.06,NNE,30,0.0,0.0,78,0.00,CLR,,0.00,0.0,WeatherDisplay:10.37,2013-12-16 06:51:00,
2013-12-16 01:56:00,34.6,28.4,30.06,NNE,30,0.0,0.0,78,0.00,CLR,,0.00,0.0,WeatherDisplay:10.37,2013-12-16 06:56:00,
2013-12-16 02:01:00,34.6,28.4,30.06,NNE,30,0.0,0.0,78,0.00,CLR,,0.00,0.0,WeatherDisplay:10.37,2013-12-16 07:01:00,
2013-12-16 02:11:00,34.6,28.4,30.06,NNE,30,0.0,0.0,78,0.00,CLR,,0.00,0.0,WeatherDisplay:10.37,2013-12-16 07:11:00,
2013-12-16 02:16:00,34.6,28.8,30.06,NNE,30,0.0,0.0,79,0.00,CLR,,0.00,0.0,WeatherDisplay:10.37,2013-12-16 07:16:00,
2013-12-16 02:21:00,34.6,28.8,30.06,NNE,30,0.0,0.0,79,0.00,CLR,,0.00,0.0,WeatherDisplay:10.37,2013-12-16 07:21:00,
2013-12-16 02:26:00,34.4,28.6,30.06,NNE,30,0.0,0.0,79,0.00,CLR,,0.00,0.0,WeatherDisplay:10.37,2013-12-16 07:26:00,
2013-12-16 02:31:00,34.4,28.6,30.06,NNE,30,0.0,0.0,79,0.00,CLR,,0.00,0.0,WeatherDisplay:10.37,2013-12-16 07:31:00,
2013-12-16 02:36:00,34.4,28.6,30.06,NNE,24,0.0,0.0,79,0.00,CLR,,0.00,0.0,WeatherDisplay:10.37,2013-12-16 07:36:00,
2013-12-16 02:41:00,34.3,28.5,30.06,NNE,18,0.0,0.0,79,0.00,CLR,,0.00,0.0,WeatherDisplay:10.37,2013-12-16 07:41:00,
2013-12-16 02:46:00,34.3,28.8,30.06,NNE,18,0.0,0.0,80,0.00,CLR,,0.00,0.0,WeatherDisplay:10.37,2013-12-16 07:46:00,
2013-12-16 02:51:00,34.3,28.8,30.06,NNE,18,0.0,0.0,80,0.00,CLR,,0.00,0.0,WeatherDisplay:10.37,2013-12-16 07:51:00,
2013-12-16 02:56:00,34.3,28.8,30.06,NNE,18,0.0,0.0,80,0.00,CLR,,0.00,0.0,WeatherDisplay:10.37,2013-12-16 07:56:00,
2013-12-16 03:01:00,34.1,28.6,30.06,NNE,18,0.0,0.0,80,0.00,CLR,,0.00,0.0,WeatherDisplay:10.37,2013-12-16 08:01:00,
2013-12-16 03:11:00,34.1,28.6,30.06,NNE,18,0.0,0.0,80,0.00,CLR,,0.00,0.0,WeatherDisplay:10.37,2013-12-16 08:11:00,
2013-12-16 03:16:00,34.0,28.5,30.06,NNE,18,0.0,0.0,80,0.00,CLR,,0.00,0.0,WeatherDisplay:10.37,2013-12-16 08:16:00,
2013-12-16 03:21:00,34.0,28.5,30.06,NNE,18,0.0,0.0,80,0.00,CLR,,0.00,0.0,WeatherDisplay:10.37,2013-12-16 08:21:00,
2013-12-16 03:26:00,33.8,28.3,30.06,NNE,18,0.0,0.0,80,0.00,CLR,,0.00,0.0,WeatherDisplay:10.37,2013-12-16 08:26:00,
2013-12-16 03:31:00,33.8,28.3,30.07,NNE,18,0.0,0.0,80,0.00,CLR,,0.00,0.0,WeatherDisplay:10.37,2013-12-16 08:31:00,
2013-12-16 03:36:00,33.7,28.2,30.07,NNE,18,0.0,0.0,80,0.00,CLR,,0.00,0.0,WeatherDisplay:10.37,2013-12-16 08:36:00,
2013-12-16 03:41:00,33.7,28.2,30.07,NNE,18,0.0,0.0,80,0.00,CLR,,0.00,0.0,WeatherDisplay:10.37,2013-12-16 08:41:00,
2013-12-16 03:46:00,33.5,28.3,30.07,NNE,18,0.0,0.0,81,0.00,CLR,,0.00,0.0,WeatherDisplay:10.37,2013-12-16 08:46:00,
2013-12-16 03:51:00,33.4,28.2,30.08,NNE,18,0.0,0.0,81,0.00,CLR,,0.00,0.0,WeatherDisplay:10.37,2013-12-16 08:51:00,
2013-12-16 03:56:00,33.4,28.2,30.08,NNE,18,0.0,0.0,81,0.00,CLR,,0.00,0.0,WeatherDisplay:10.37,2013-12-16 08:56:00,
2013-12-16 04:01:00,33.2,28.0,30.08,NNE,18,0.0,0.0,81,0.00,CLR,,0.00,0.0,WeatherDisplay:10.37,2013-12-16 09:01:00,
2013-12-16 04:11:00,33.2,28.0,30.08,North,354,0.0,0.0,81,0.00,CLR,,0.00,0.0,WeatherDisplay:10.37,2013-12-16 09:11:00,
2013-12-16 04:16:00,33.1,27.9,30.08,West,260,0.0,0.0,81,0.00,CLR,,0.00,0.0,WeatherDisplay:10.37,2013-12-16 09:16:00,
2013-12-16 04:21:00,33.1,28.2,30.08,WSW,247,0.0,0.0,82,0.00,CLR,,0.00,0.0,WeatherDisplay:10.37,2013-12-16 09:21:00,
2013-12-16 04:26:00,33.1,28.2,30.08,WSW,247,0.0,0.0,82,0.00,CLR,,0.00,0.0,WeatherDisplay:10.37,2013-12-16 09:26:00,
2013-12-16 04:31:00,33.2,28.3,30.08,WSW,247,0.0,0.0,82,0.00,CLR,,0.00,0.0,WeatherDisplay:10.37,2013-12-16 09:31:00,
2013-12-16 04:36:00,33.2,28.3,30.08,WSW,247,0.0,0.0,82,0.00,CLR,,0.00,0.0,WeatherDisplay:10.37,2013-12-16 09:36:00,
2013-12-16 04:41:00,33.2,28.3,30.08,WSW,247,0.0,0.0,82,0.00,CLR,,0.00,0.0,WeatherDisplay:10.37,2013-12-16 09:41:00,
2013-12-16 04:46:00,33.2,28.3,30.08,WSW,246,0.0,0.0,82,0.00,CLR,,0.00,0.0,WeatherDisplay:10.37,2013-12-16 09:46:00,
2013-12-16 04:51:00,33.4,28.5,30.09,WSW,246,0.0,0.0,82,0.00,CLR,,0.00,0.0,WeatherDisplay:10.37,2013-12-16 09:51:00,
2013-12-16 04:56:00,33.4,28.5,30.09,WSW,246,0.0,0.0,82,0.00,CLR,,0.00,0.0,WeatherDisplay:10.37,2013-12-16 09:56:00,
2013-12-16 05:01:00,33.4,28.5,30.08,WSW,246,0.0,0.0,82,0.00,CLR,,0.00,0.0,WeatherDisplay:10.37,2013-12-16 10:01:00,
2013-12-16 05:11:00,33.2,28.3,30.08,WSW,246,0.0,0.0,82,0.00,CLR,,0.00,0.0,WeatherDisplay:10.37,2013-12-16 10:11:00,
2013-12-16 05:16:00,33.2,28.3,30.08,WSW,246,0.0,0.0,82,0.00,CLR,,0.00,0.0,WeatherDisplay:10.37,2013-12-16 10:16:00,
2013-12-16 05:21:00,33.2,28.3,30.08,WSW,246,0.0,0.0,82,0.00,CLR,,0.00,0.0,WeatherDisplay:10.37,2013-12-16 10:21:00,
2013-12-16 05:26:00,33.2,28.3,30.08,WSW,246,0.0,0.0,82,0.00,CLR,,0.00,0.0,WeatherDisplay:10.37,2013-12-16 10:26:00,
2013-12-16 05:31:00,33.1,28.2,30.08,WSW,246,0.0,0.0,82,0.00,CLR,,0.00,0.0,WeatherDisplay:10.37,2013-12-16 10:31:00,
2013-12-16 05:36:00,33.1,28.2,30.09,WSW,246,0.0,0.0,82,0.00,CLR,,0.00,0.0,WeatherDisplay:10.37,2013-12-16 10:36:00,
2013-12-16 05:41:00,32.9,28.0,30.09,WSW,246,0.0,0.0,82,0.00,CLR,,0.00,0.0,WeatherDisplay:10.37,2013-12-16 10:41:00,
2013-12-16 05:46:00,32.9,28.0,30.09,WSW,246,0.0,0.0,82,0.00,CLR,,0.00,0.0,WeatherDisplay:10.37,2013-12-16 10:46:00,
2013-12-16 05:51:00,32.8,27.9,30.09,WSW,246,0.0,0.0,82,0.00,CLR,,0.00,0.0,WeatherDisplay:10.37,2013-12-16 10:51:00,
2013-12-16 05:56:00,32.8,27.9,30.09,WSW,246,0.0,0.0,82,0.00,CLR,,0.00,0.0,WeatherDisplay:10.37,2013-12-16 10:56:00,
2013-12-16 06:01:00,32.8,27.9,30.09,WSW,246,0.0,0.0,82,0.00,CLR,,0.00,0.0,WeatherDisplay:10.37,2013-12-16 11:01:00,
2013-12-16 06:11:00,32.7,28.1,30.10,WSW,246,0.0,0.0,83,0.00,CLR,,0.00,0.0,WeatherDisplay:10.37,2013-12-16 11:11:00,
2013-12-16 06:16:00,32.7,28.1,30.10,WSW,246,0.0,0.0,83,0.00,CLR,,0.00,0.0,WeatherDisplay:10.37,2013-12-16 11:16:00,
2013-12-16 06:21:00,32.7,28.1,30.10,WSW,246,0.0,0.0,83,0.00,CLR,,0.00,0.0,WeatherDisplay:10.37,2013-12-16 11:21:00,
2013-12-16 06:26:00,32.5,27.9,30.10,WSW,246,0.0,0.0,83,0.00,CLR,,0.00,0.0,WeatherDisplay:10.37,2013-12-16 11:26:00,
2013-12-16 06:36:00,32.5,27.9,30.10,WSW,246,0.0,0.0,83,0.00,CLR,,0.00,0.0,WeatherDisplay:10.37,2013-12-16 11:36:00,
2013-12-16 06:41:00,32.5,27.9,30.10,WSW,246,0.0,0.0,83,0.00,CLR,,0.00,0.0,WeatherDisplay:10.37,2013-12-16 11:41:00,
2013-12-16 06:46:00,32.4,27.8,30.11,WSW,246,0.0,0.0,83,0.00,CLR,,0.00,0.0,WeatherDisplay:10.37,2013-12-16 11:46:00,
2013-12-16 06:51:00,32.4,27.8,30.11,WSW,246,0.0,0.0,83,0.00,CLR,,0.00,0.0,WeatherDisplay:10.37,2013-12-16 11:51:00,
2013-12-16 06:56:00,32.2,27.6,30.11,WSW,246,0.0,0.0,83,0.00,CLR,,0.00,0.0,WeatherDisplay:10.37,2013-12-16 11:56:00,
2013-12-16 07:01:00,32.2,27.6,30.11,WSW,246,0.0,0.0,83,0.00,CLR,,0.00,0.0,WeatherDisplay:10.37,2013-12-16 12:01:00,
2013-12-16 07:11:00,32.1,27.5,30.11,WSW,246,0.0,0.0,83,0.00,CLR,,0.00,0.0,WeatherDisplay:10.37,2013-12-16 12:11:00,
2013-12-16 07:16:00,32.1,27.5,30.12,WSW,246,0.0,0.0,83,0.00,CLR,,0.00,0.0,WeatherDisplay:10.37,2013-12-16 12:16:00,
2013-12-16 07:21:00,31.9,27.3,30.12,WSW,246,0.0,0.0,83,0.00,CLR,,0.00,0.0,WeatherDisplay:10.37,2013-12-16 12:21:00,
2013-12-16 07:26:00,31.9,27.3,30.12,WSW,246,0.0,0.0,83,0.00,CLR,,0.00,5.8,WeatherDisplay:10.37,2013-12-16 12:26:00,
2013-12-16 07:31:00,31.8,27.2,30.12,WSW,246,0.0,0.0,83,0.00,CLR,,0.00,8.1,WeatherDisplay:10.37,2013-12-16 12:31:00,
2013-12-16 07:36:00,31.8,27.2,30.12,WSW,246,0.0,0.0,83,0.00,CLR,,0.00,10.3,WeatherDisplay:10.37,2013-12-16 12:36:00,
2013-12-16 07:41:00,31.8,27.5,30.12,WSW,246,0.0,0.0,84,0.00,CLR,,0.00,12.7,WeatherDisplay:10.37,2013-12-16 12:41:00,
2013-12-16 07:46:00,31.8,27.5,30.12,WSW,246,0.0,0.0,84,0.00,CLR,,0.00,13.8,WeatherDisplay:10.37,2013-12-16 12:46:00,
2013-12-16 07:51:00,31.8,27.5,30.13,WSW,246,0.0,0.0,84,0.00,CLR,,0.00,16.1,WeatherDisplay:10.37,2013-12-16 12:51:00,
2013-12-16 07:56:00,31.8,27.8,30.13,WSW,246,0.0,0.0,85,0.00,CLR,,0.00,18.4,WeatherDisplay:10.37,2013-12-16 12:56:00,
2013-12-16 08:01:00,31.8,27.8,30.13,WSW,246,0.0,0.0,85,0.00,FEW,,0.00,18.4,WeatherDisplay:10.37,2013-12-16 13:01:00,
2013-12-16 08:11:00,31.9,27.9,30.13,WSW,252,0.0,0.0,85,0.00,FEW,,0.00,21.9,WeatherDisplay:10.37,2013-12-16 13:11:00,
2013-12-16 08:16:00,32.1,28.1,30.13,West,260,0.0,0.0,85,0.00,FEW,,0.00,24.1,WeatherDisplay:10.37,2013-12-16 13:16:00,
2013-12-16 08:21:00,32.2,28.2,30.13,West,265,0.0,0.0,85,0.00,FEW,,0.00,26.4,WeatherDisplay:10.37,2013-12-16 13:21:00,
2013-12-16 08:26:00,32.4,28.4,30.13,West,265,0.0,0.0,85,0.00,FEW,,0.00,26.4,WeatherDisplay:10.37,2013-12-16 13:26:00,
2013-12-16 08:31:00,32.5,28.5,30.14,West,265,0.0,0.0,85,0.00,FEW,,0.00,28.8,WeatherDisplay:10.37,2013-12-16 13:31:00,
2013-12-16 08:36:00,32.8,28.8,30.14,West,265,0.0,0.0,85,0.00,FEW,,0.00,28.8,WeatherDisplay:10.37,2013-12-16 13:36:00,
2013-12-16 08:41:00,33.1,29.0,30.14,SW,232,0.0,0.0,85,0.00,FEW,,0.00,29.9,WeatherDisplay:10.37,2013-12-16 13:41:00,
2013-12-16 08:46:00,33.4,29.4,30.14,SW,217,0.0,0.0,85,0.00,FEW,,0.00,29.9,WeatherDisplay:10.37,2013-12-16 13:46:00,
2013-12-16 08:51:00,33.8,29.5,30.14,SW,215,0.0,0.0,84,0.00,FEW,,0.00,32.2,WeatherDisplay:10.37,2013-12-16 13:51:00,
2013-12-16 08:56:00,34.1,29.8,30.14,SW,224,0.0,0.0,84,0.00,FEW,,0.00,32.2,WeatherDisplay:10.37,2013-12-16 13:56:00,
2013-12-16 09:01:00,34.5,29.9,30.15,WSW,257,0.0,0.0,83,0.00,FEW,,0.00,32.2,WeatherDisplay:10.37,2013-12-16 14:01:00,
2013-12-16 09:11:00,35.3,30.3,30.15,SW,225,0.0,0.0,82,0.00,FEW,,0.00,32.2,WeatherDisplay:10.37,2013-12-16 14:11:00,
2013-12-16 09:16:00,35.6,30.4,30.15,SSW,212,0.0,0.0,81,0.00,FEW,,0.00,34.5,WeatherDisplay:10.37,2013-12-16 14:16:00,
2013-12-16 09:21:00,36.0,30.4,30.16,SSW,201,0.0,0.0,80,0.00,FEW,,0.00,34.5,WeatherDisplay:10.37,2013-12-16 14:21:00,
2013-12-16 09:26:00,36.5,30.9,30.16,SSW,197,0.0,0.0,80,0.00,FEW,,0.00,34.5,WeatherDisplay:10.37,2013-12-16 14:26:00,
2013-12-16 09:31:00,36.9,31.3,30.16,West,266,0.0,0.0,80,0.00,FEW,,0.00,34.5,WeatherDisplay:10.37,2013-12-16 14:31:00,
2013-12-16 09:36:00,37.3,31.4,30.16,WNW,288,0.0,0.0,79,0.00,FEW,,0.00,34.5,WeatherDisplay:10.37,2013-12-16 14:36:00,
2013-12-16 09:41:00,37.8,31.6,30.16,West,276,0.0,0.0,78,0.00,FEW,,0.00,36.8,WeatherDisplay:10.37,2013-12-16 14:41:00,
2013-12-16 09:46:00,38.3,32.0,30.16,West,277,0.0,0.0,78,0.00,FEW,,0.00,36.8,WeatherDisplay:10.37,2013-12-16 14:46:00,
2013-12-16 09:51:00,38.7,32.1,30.17,West,268,0.0,0.0,77,0.00,FEW,,0.00,36.8,WeatherDisplay:10.37,2013-12-16 14:51:00,
2013-12-16 09:56:00,39.7,32.4,30.17,West,262,0.0,0.0,75,0.00,FEW,,0.00,115.0,WeatherDisplay:10.37,2013-12-16 14:56:00,
2013-12-16 10:01:00,41.2,32.5,30.17,West,262,0.0,0.0,71,0.00,FEW,,0.00,384.1,WeatherDisplay:10.37,2013-12-16 15:01:00,
2013-12-16 10:11:00,43.2,33.0,30.17,West,277,0.0,1.0,67,0.00,FEW,,0.00,402.5,WeatherDisplay:10.37,2013-12-16 15:11:00,
2013-12-16 10:16:00,44.0,32.2,30.17,West,267,0.0,0.0,63,0.00,FEW,,0.00,412.9,WeatherDisplay:10.37,2013-12-16 15:16:00,
2013-12-16 10:21:00,44.3,31.7,30.17,West,264,0.0,2.0,61,0.00,FEW,,0.00,341.6,WeatherDisplay:10.37,2013-12-16 15:21:00,
2013-12-16 10:26:00,44.8,32.6,30.17,WNW,288,0.0,0.0,62,0.00,FEW,,0.00,240.3,WeatherDisplay:10.37,2013-12-16 15:26:00,
2013-12-16 10:31:00,45.1,32.4,30.17,NW,317,0.0,0.0,61,0.00,FEW,,0.00,248.4,WeatherDisplay:10.37,2013-12-16 15:31:00,
2013-12-16 10:36:00,45.2,32.1,30.16,West,262,0.0,0.0,60,0.00,FEW,,0.00,87.4,WeatherDisplay:10.37,2013-12-16 15:36:00,
2013-12-16 10:41:00,45.4,32.3,30.16,SW,219,0.0,0.0,60,0.00,FEW,,0.00,147.2,WeatherDisplay:10.37,2013-12-16 15:41:00,
2013-12-16 10:46:00,45.4,31.9,30.16,SW,231,0.0,0.0,59,0.00,FEW,,0.00,93.2,WeatherDisplay:10.37,2013-12-16 15:46:00,
2013-12-16 10:51:00,45.5,32.4,30.16,SW,229,0.0,2.0,60,0.00,FEW,,0.00,139.2,WeatherDisplay:10.37,2013-12-16 15:51:00,
2013-12-16 10:56:00,45.8,32.7,30.16,WSW,255,0.0,0.0,60,0.00,FEW,,0.00,52.9,WeatherDisplay:10.37,2013-12-16 15:56:00,
2013-12-16 11:01:00,46.0,32.5,30.16,WSW,247,0.0,0.0,59,0.00,FEW,,0.00,125.3,WeatherDisplay:10.37,2013-12-16 16:01:00,
2013-12-16 11:11:00,46.4,32.0,30.16,SW,231,0.0,1.0,57,0.00,FEW,,0.00,143.8,WeatherDisplay:10.37,2013-12-16 16:11:00,
2013-12-16 11:16:00,46.5,31.6,30.16,WSW,250,0.0,2.0,56,0.00,FEW,,0.00,79.3,WeatherDisplay:10.37,2013-12-16 16:16:00,
2013-12-16 11:21:00,46.7,31.4,30.16,SSW,205,0.0,2.0,55,0.00,FEW,,0.00,80.5,WeatherDisplay:10.37,2013-12-16 16:21:00,
2013-12-16 11:26:00,46.9,32.0,30.16,SW,215,0.0,1.0,56,0.00,FEW,,0.00,171.3,WeatherDisplay:10.37,2013-12-16 16:26:00,
2013-12-16 11:31:00,47.3,32.0,30.15,SSW,212,0.0,3.0,55,0.00,FEW,,0.00,173.7,WeatherDisplay:10.37,2013-12-16 16:31:00,
2013-12-16 11:36:00,47.7,31.8,30.15,SW,222,0.0,2.0,54,0.00,FEW,,0.00,194.3,WeatherDisplay:10.37,2013-12-16 16:36:00,
2013-12-16 11:41:00,47.9,31.6,30.15,West,277,0.0,4.0,53,0.00,FEW,,0.00,79.3,WeatherDisplay:10.37,2013-12-16 16:41:00,
2013-12-16 11:46:00,48.0,31.2,30.15,West,260,0.0,1.0,52,0.00,FEW,,0.00,50.6,WeatherDisplay:10.37,2013-12-16 16:46:00,
2013-12-16 11:51:00,48.2,31.9,30.14,West,280,0.0,2.0,53,0.00,FEW,,0.00,46.0,WeatherDisplay:10.37,2013-12-16 16:51:00,
2013-12-16 11:56:00,48.3,31.0,30.14,West,262,0.0,1.0,51,0.00,FEW,,0.00,62.1,WeatherDisplay:10.37,2013-12-16 16:56:00,
2013-12-16 12:01:00,48.6,32.2,30.14,WSW,251,0.0,0.0,53,0.00,FEW,,0.00,54.0,WeatherDisplay:10.37,2013-12-16 17:01:00,
2013-12-16 12:11:00,49.1,32.7,30.14,SW,222,0.0,1.0,53,0.00,FEW,,0.00,109.3,WeatherDisplay:10.37,2013-12-16 17:11:00,
2013-12-16 12:16:00,49.1,31.8,30.13,WSW,253,0.0,0.0,51,0.00,FEW,,0.00,64.4,WeatherDisplay:10.37,2013-12-16 17:16:00,
2013-12-16 12:21:00,49.2,32.3,30.12,WSW,253,0.0,0.0,52,0.00,FEW,,0.00,254.2,WeatherDisplay:10.37,2013-12-16 17:21:00,
2013-12-16 12:26:00,49.6,32.7,30.12,WSW,243,0.0,0.0,52,0.00,FEW,,0.00,115.0,WeatherDisplay:10.37,2013-12-16 17:26:00,
2013-12-16 12:31:00,49.8,32.4,30.12,WSW,246,0.0,0.0,51,0.00,FEW,,0.00,50.6,WeatherDisplay:10.37,2013-12-16 17:31:00,
2013-12-16 12:36:00,49.9,32.5,30.11,WSW,239,0.0,0.0,51,0.00,FEW,,0.00,149.5,WeatherDisplay:10.37,2013-12-16 17:36:00,
2013-12-16 12:41:00,50.2,32.3,30.11,SW,229,0.0,2.0,50,0.00,FEW,,0.00,162.2,WeatherDisplay:10.37,2013-12-16 17:41:00,
2013-12-16 12:46:00,50.4,32.0,30.11,SW,231,0.0,0.0,49,0.00,FEW,,0.00,147.2,WeatherDisplay:10.37,2013-12-16 17:46:00,
2013-12-16 12:51:00,50.8,32.8,30.11,SW,233,0.0,0.0,50,0.00,FEW,,0.00,238.1,WeatherDisplay:10.37,2013-12-16 17:51:00,
2013-12-16 12:56:00,51.1,32.6,30.11,South,190,0.0,1.0,49,0.00,FEW,,0.00,244.9,WeatherDisplay:10.37,2013-12-16 17:56:00,
2013-12-16 13:01:00,51.7,33.1,30.10,SSE,162,0.0,0.0,49,0.00,FEW,,0.00,50.6,WeatherDisplay:10.37,2013-12-16 18:01:00,
2013-12-16 13:11:00,52.2,32.6,30.10,West,272,0.0,4.0,47,0.00,FEW,,0.00,52.9,WeatherDisplay:10.37,2013-12-16 18:11:00,
2013-12-16 13:16:00,52.2,32.0,30.10,WNW,282,1.0,5.0,46,0.00,FEW,,0.00,56.4,WeatherDisplay:10.37,2013-12-16 18:16:00,
2013-12-16 13:21:00,52.3,32.6,30.10,WNW,296,0.0,0.0,47,0.00,FEW,,0.00,61.0,WeatherDisplay:10.37,2013-12-16 18:21:00,
2013-12-16 13:26:00,52.5,32.8,30.10,SSW,207,0.0,0.0,47,0.00,FEW,,0.00,46.0,WeatherDisplay:10.37,2013-12-16 18:26:00,
2013-12-16 13:31:00,52.8,33.6,30.09,SSE,164,1.0,4.0,48,0.00,FEW,,0.00,66.7,WeatherDisplay:10.37,2013-12-16 18:31:00,
2013-12-16 13:36:00,52.9,33.2,30.09,SSW,200,1.0,3.0,47,0.00,FEW,,0.00,58.6,WeatherDisplay:10.37,2013-12-16 18:36:00,
2013-12-16 13:41:00,53.1,33.4,30.09,South,189,0.0,1.0,47,0.00,FEW,,0.00,46.0,WeatherDisplay:10.37,2013-12-16 18:41:00,
2013-12-16 13:46:00,53.2,33.5,30.09,SSE,167,0.0,0.0,47,0.00,FEW,,0.00,46.0,WeatherDisplay:10.37,2013-12-16 18:46:00,
2013-12-16 13:51:00,53.3,33.6,30.09,South,176,0.0,2.0,47,0.00,FEW,,0.00,141.4,WeatherDisplay:10.37,2013-12-16 18:51:00,
2013-12-16 13:56:00,53.5,33.7,30.09,SSE,161,0.0,0.0,47,0.00,FEW,,0.00,56.4,WeatherDisplay:10.37,2013-12-16 18:56:00,
2013-12-16 14:01:00,53.6,33.8,30.09,WSW,239,0.0,1.0,47,0.00,FEW,,0.00,44.9,WeatherDisplay:10.37,2013-12-16 19:01:00,
2013-12-16 14:11:00,53.9,33.6,30.09,SW,225,0.0,3.0,46,0.00,FEW,,0.00,48.3,WeatherDisplay:10.37,2013-12-16 19:11:00,
2013-12-16 14:16:00,54.1,33.8,30.09,SW,227,0.0,1.0,46,0.00,FEW,,0.00,96.6,WeatherDisplay:10.37,2013-12-16 19:16:00,
2013-12-16 14:21:00,54.2,33.9,30.09,West,265,0.0,1.0,46,0.00,FEW,,0.00,61.0,WeatherDisplay:10.37,2013-12-16 19:21:00,
2013-12-16 14:26:00,54.4,34.6,30.09,SW,227,0.0,1.0,47,0.00,FEW,,0.00,42.5,WeatherDisplay:10.37,2013-12-16 19:26:00,
2013-12-16 14:31:00,54.4,34.6,30.09,SSW,195,0.0,0.0,47,0.00,FEW,,0.00,54.0,WeatherDisplay:10.37,2013-12-16 19:31:00,
2013-12-16 14:36:00,54.4,34.6,30.09,SSW,211,0.0,0.0,47,0.00,FEW,,0.00,119.6,WeatherDisplay:10.37,2013-12-16 19:36:00,
2013-12-16 14:41:00,54.4,34.0,30.09,WSW,247,0.0,0.0,46,0.00,FEW,,0.00,71.3,WeatherDisplay:10.37,2013-12-16 19:41:00,
2013-12-16 14:46:00,54.4,34.6,30.09,WSW,248,0.0,0.0,47,0.00,FEW,,0.00,42.5,WeatherDisplay:10.37,2013-12-16 19:46:00,
2013-12-16 14:51:00,54.4,34.6,30.08,SW,217,0.0,0.0,47,0.00,FEW,,0.00,40.3,WeatherDisplay:10.37,2013-12-16 19:51:00,
2013-12-16 14:56:00,54.5,34.7,30.08,SW,233,0.0,0.0,47,0.00,FEW,,0.00,88.5,WeatherDisplay:10.37,2013-12-16 19:56:00,
2013-12-16 15:01:00,54.5,34.7,30.09,West,273,0.0,1.0,47,0.00,SCT,,0.00,87.4,WeatherDisplay:10.37,2013-12-16 20:01:00,
2013-12-16 15:11:00,55.0,34.6,30.09,South,170,0.0,2.0,46,0.00,SCT,,0.00,80.5,WeatherDisplay:10.37,2013-12-16 20:11:00,
2013-12-16 15:16:00,55.3,35.4,30.09,NE,53,0.0,1.0,47,0.00,SCT,,0.00,42.5,WeatherDisplay:10.37,2013-12-16 20:16:00,
2013-12-16 15:21:00,55.3,35.9,30.09,NNE,17,0.0,0.0,48,0.00,SCT,,0.00,56.4,WeatherDisplay:10.37,2013-12-16 20:21:00,
2013-12-16 15:26:00,55.1,35.2,30.09,NNE,22,0.0,0.0,47,0.00,SCT,,0.00,42.5,WeatherDisplay:10.37,2013-12-16 20:26:00,
2013-12-16 15:31:00,55.1,35.2,30.09,East,81,0.0,0.0,47,0.00,SCT,,0.00,32.2,WeatherDisplay:10.37,2013-12-16 20:31:00,
2013-12-16 15:36:00,55.1,35.2,30.09,ESE,114,0.0,0.0,47,0.00,SCT,,0.00,34.5,WeatherDisplay:10.37,2013-12-16 20:36:00,
2013-12-16 15:41:00,55.1,34.7,30.09,ESE,114,0.0,0.0,46,0.00,SCT,,0.00,29.9,WeatherDisplay:10.37,2013-12-16 20:41:00,
2013-12-16 15:46:00,55.1,36.8,30.09,ESE,109,0.0,0.0,50,0.00,SCT,,0.00,28.8,WeatherDisplay:10.37,2013-12-16 20:46:00,
2013-12-16 15:51:00,55.1,35.2,30.09,ENE,66,0.0,0.0,47,0.00,SCT,,0.00,36.8,WeatherDisplay:10.37,2013-12-16 20:51:00,
2013-12-16 15:56:00,55.0,36.2,30.09,NE,34,0.0,0.0,49,0.00,SCT,,0.00,26.4,WeatherDisplay:10.37,2013-12-16 20:56:00,
2013-12-16 16:01:00,54.8,34.9,30.09,SSE,156,0.0,0.0,47,0.00,SCT,,0.00,28.8,WeatherDisplay:10.37,2013-12-16 21:01:00,
2013-12-16 16:11:00,54.6,35.2,30.09,South,175,0.0,0.0,48,0.00,SCT,,0.00,21.9,WeatherDisplay:10.37,2013-12-16 21:11:00,
2013-12-16 16:16:00,54.5,35.7,30.09,South,175,0.0,0.0,49,0.00,SCT,,0.00,20.7,WeatherDisplay:10.37,2013-12-16 21:16:00,
2013-12-16 16:21:00,54.4,35.6,30.09,South,175,0.0,0.0,49,0.00,SCT,,0.00,18.4,WeatherDisplay:10.37,2013-12-16 21:21:00,
2013-12-16 16:26:00,54.3,35.5,30.09,South,175,0.0,0.0,49,0.00,SCT,,0.00,16.1,WeatherDisplay:10.37,2013-12-16 21:26:00,
2013-12-16 16:31:00,54.1,35.9,30.10,South,175,0.0,0.0,50,0.00,SCT,,0.00,13.8,WeatherDisplay:10.37,2013-12-16 21:31:00,
2013-12-16 16:36:00,53.9,35.7,30.10,South,175,0.0,0.0,50,0.00,SCT,,0.00,13.8,WeatherDisplay:10.37,2013-12-16 21:36:00,
2013-12-16 16:41:00,53.8,36.1,30.10,South,175,0.0,0.0,51,0.00,SCT,,0.00,12.7,WeatherDisplay:10.37,2013-12-16 21:41:00,
2013-12-16 16:46:00,53.5,36.3,30.10,South,175,0.0,0.0,52,0.00,SCT,,0.00,10.3,WeatherDisplay:10.37,2013-12-16 21:46:00,
2013-12-16 16:51:00,53.3,36.6,30.10,South,175,0.0,0.0,53,0.00,SCT,,0.00,8.1,WeatherDisplay:10.37,2013-12-16 21:51:00,
2013-12-16 16:56:00,53.1,36.4,30.10,South,175,0.0,0.0,53,0.00,SCT,,0.00,5.8,WeatherDisplay:10.37,2013-12-16 21:56:00,
2013-12-16 17:01:00,52.8,36.1,30.11,South,175,0.0,0.0,53,0.00,SCT,,0.00,0.0,WeatherDisplay:10.37,2013-12-16 22:01:00,
2013-12-16 17:11:00,52.0,36.8,30.11,South,175,0.0,0.0,56,0.00,SCT,,0.00,0.0,WeatherDisplay:10.37,2013-12-16 22:11:00,
2013-12-16 17:16:00,51.7,36.9,30.11,South,175,0.0,0.0,57,0.00,SCT,,0.00,0.0,WeatherDisplay:10.37,2013-12-16 22:16:00,
2013-12-16 17:21:00,51.3,36.6,30.11,South,175,0.0,0.0,57,0.00,SCT,,0.00,0.0,WeatherDisplay:10.37,2013-12-16 22:21:00,
2013-12-16 17:26:00,51.0,36.3,30.11,South,175,0.0,0.0,57,0.00,SCT,,0.00,0.0,WeatherDisplay:10.37,2013-12-16 22:26:00,
2013-12-16 17:31:00,50.7,36.5,30.11,South,175,0.0,0.0,58,0.00,SCT,,0.00,0.0,WeatherDisplay:10.37,2013-12-16 22:31:00,
2013-12-16 17:36:00,50.2,36.5,30.11,South,175,0.0,0.0,59,0.00,SCT,,0.00,0.0,WeatherDisplay:10.37,2013-12-16 22:36:00,
2013-12-16 17:41:00,49.9,36.6,30.11,South,175,0.0,0.0,60,0.00,SCT,,0.00,0.0,WeatherDisplay:10.37,2013-12-16 22:41:00,
2013-12-16 17:46:00,49.5,36.2,30.12,South,175,0.0,0.0,60,0.00,SCT,,0.00,0.0,WeatherDisplay:10.37,2013-12-16 22:46:00,
2013-12-16 17:51:00,49.1,36.2,30.12,South,175,0.0,0.0,61,0.00,SCT,,0.00,0.0,WeatherDisplay:10.37,2013-12-16 22:51:00,
2013-12-16 17:56:00,48.8,36.4,30.12,South,175,0.0,0.0,62,0.00,SCT,,0.00,0.0,WeatherDisplay:10.37,2013-12-16 22:56:00,
2013-12-16 18:01:00,48.5,36.0,30.12,South,175,0.0,0.0,62,0.00,FEW,,0.00,0.0,WeatherDisplay:10.37,2013-12-16 23:01:00,
2013-12-16 18:11:00,47.8,36.2,30.12,South,175,0.0,0.0,64,0.00,FEW,,0.00,0.0,WeatherDisplay:10.37,2013-12-16 23:11:00,
2013-12-16 18:16:00,47.5,35.9,30.12,South,175,0.0,0.0,64,0.00,FEW,,0.00,0.0,WeatherDisplay:10.37,2013-12-16 23:16:00,
2013-12-16 18:21:00,47.3,36.1,30.12,South,175,0.0,0.0,65,0.00,FEW,,0.00,0.0,WeatherDisplay:10.37,2013-12-16 23:21:00,
2013-12-16 18:26:00,47.0,36.2,30.12,South,175,0.0,0.0,66,0.00,FEW,,0.00,0.0,WeatherDisplay:10.37,2013-12-16 23:26:00,
2013-12-16 18:31:00,46.7,35.9,30.13,South,175,0.0,0.0,66,0.00,FEW,,0.00,0.0,WeatherDisplay:10.37,2013-12-16 23:31:00,
2013-12-16 18:36:00,46.4,36.0,30.13,South,175,0.0,0.0,67,0.00,FEW,,0.00,0.0,WeatherDisplay:10.37,2013-12-16 23:36:00,
2013-12-16 18:41:00,46.1,36.2,30.13,South,175,0.0,0.0,68,0.00,FEW,,0.00,0.0,WeatherDisplay:10.37,2013-12-16 23:41:00,
2013-12-16 18:46:00,46.0,36.0,30.13,South,175,0.0,0.0,68,0.00,FEW,,0.00,0.0,WeatherDisplay:10.37,2013-12-16 23:46:00,
2013-12-16 18:51:00,45.8,35.8,30.13,South,175,0.0,0.0,68,0.00,FEW,,0.00,0.0,WeatherDisplay:10.37,2013-12-16 23:51:00,
2013-12-16 18:56:00,45.7,36.1,30.13,South,175,0.0,0.0,69,0.00,FEW,,0.00,0.0,WeatherDisplay:10.37,2013-12-16 23:56:00,
2013-12-16 19:01:00,45.4,35.8,30.14,South,175,0.0,0.0,69,0.00,SCT,,0.00,0.0,WeatherDisplay:10.37,2013-12-17 00:01:00,
2013-12-16 19:11:00,45.1,35.9,30.14,South,175,0.0,0.0,70,0.00,SCT,,0.00,0.0,WeatherDisplay:10.37,2013-12-17 00:11:00,
2013-12-16 19:16:00,44.9,35.7,30.14,South,175,0.0,0.0,70,0.00,SCT,,0.00,0.0,WeatherDisplay:10.37,2013-12-17 00:16:00,
2013-12-16 19:21:00,44.8,36.0,30.14,South,175,0.0,0.0,71,0.00,SCT,,0.00,0.0,WeatherDisplay:10.37,2013-12-17 00:21:00,
2013-12-16 19:26:00,44.6,35.8,30.14,South,175,0.0,0.0,71,0.00,SCT,,0.00,0.0,WeatherDisplay:10.37,2013-12-17 00:26:00,
2013-12-16 19:31:00,44.5,35.7,30.14,South,175,0.0,0.0,71,0.00,SCT,,0.00,0.0,WeatherDisplay:10.37,2013-12-17 00:31:00,
2013-12-16 19:36:00,44.3,35.8,30.14,South,175,0.0,0.0,72,0.00,SCT,,0.00,0.0,WeatherDisplay:10.37,2013-12-17 00:36:00,
2013-12-16 19:41:00,44.2,35.7,30.14,South,175,0.0,0.0,72,0.00,SCT,,0.00,0.0,WeatherDisplay:10.37,2013-12-17 00:41:00,
2013-12-16 19:46:00,44.1,35.6,30.14,South,175,0.0,0.0,72,0.00,SCT,,0.00,0.0,WeatherDisplay:10.37,2013-12-17 00:46:00,
2013-12-16 19:51:00,44.1,36.0,30.14,South,175,0.0,0.0,73,0.00,SCT,,0.00,0.0,WeatherDisplay:10.37,2013-12-17 00:51:00,
2013-12-16 19:56:00,43.9,35.8,30.14,South,175,0.0,0.0,73,0.00,SCT,,0.00,0.0,WeatherDisplay:10.37,2013-12-17 00:56:00,
2013-12-16 20:01:00,43.9,35.8,30.13,South,175,0.0,0.0,73,0.00,BKN,,0.00,0.0,WeatherDisplay:10.37,2013-12-17 01:01:00,
2013-12-16 20:11:00,43.8,35.7,30.13,South,175,0.0,0.0,73,0.00,BKN,,0.00,0.0,WeatherDisplay:10.37,2013-12-17 01:11:00,
2013-12-16 20:16:00,43.6,35.9,30.13,South,175,0.0,0.0,74,0.00,BKN,,0.00,0.0,WeatherDisplay:10.37,2013-12-17 01:16:00,
2013-12-16 20:21:00,43.6,35.9,30.13,South,175,0.0,0.0,74,0.00,BKN,,0.00,0.0,WeatherDisplay:10.37,2013-12-17 01:21:00,
2013-12-16 20:26:00,43.6,35.9,30.13,South,175,0.0,0.0,74,0.00,BKN,,0.00,0.0,WeatherDisplay:10.37,2013-12-17 01:26:00,
2013-12-16 20:36:00,43.5,35.8,30.13,South,175,0.0,0.0,74,0.00,BKN,,0.00,0.0,WeatherDisplay:10.37,2013-12-17 01:36:00,
2013-12-16 20:46:00,43.5,36.1,30.13,South,175,0.0,0.0,75,0.00,BKN,,0.00,0.0,WeatherDisplay:10.37,2013-12-17 01:46:00,
2013-12-16 20:51:00,43.4,36.0,30.14,South,175,0.0,0.0,75,0.00,BKN,,0.00,0.0,WeatherDisplay:10.37,2013-12-17 01:51:00,
2013-12-16 21:01:00,43.3,35.9,30.14,South,175,0.0,0.0,75,0.00,BKN,,0.00,0.0,WeatherDisplay:10.37,2013-12-17 02:01:00,
2013-12-16 21:11:00,43.2,36.1,30.13,South,175,0.0,0.0,76,0.00,BKN,,0.00,0.0,WeatherDisplay:10.37,2013-12-17 02:11:00,
2013-12-16 21:21:00,43.1,36.4,30.13,South,175,0.0,0.0,77,0.00,BKN,,0.00,0.0,WeatherDisplay:10.37,2013-12-17 02:21:00,
2013-12-16 21:26:00,42.9,36.2,30.13,South,175,0.0,0.0,77,0.00,BKN,,0.00,0.0,WeatherDisplay:10.37,2013-12-17 02:26:00,
2013-12-16 21:31:00,42.9,36.2,30.13,South,175,0.0,0.0,77,0.00,BKN,,0.00,0.0,WeatherDisplay:10.37,2013-12-17 02:31:00,
2013-12-16 21:36:00,42.9,36.2,30.13,South,175,0.0,0.0,77,0.00,BKN,,0.00,0.0,WeatherDisplay:10.37,2013-12-17 02:36:00,
2013-12-16 21:46:00,42.8,36.4,30.13,South,175,0.0,0.0,78,0.00,BKN,,0.00,0.0,WeatherDisplay:10.37,2013-12-17 02:46:00,
2013-12-16 21:56:00,42.8,36.4,30.13,South,175,0.0,0.0,78,0.00,BKN,,0.00,0.0,WeatherDisplay:10.37,2013-12-17 02:56:00,
2013-12-16 22:01:00,42.7,36.4,30.13,South,175,0.0,0.0,78,0.00,SCT,,0.00,0.0,WeatherDisplay:10.37,2013-12-17 03:01:00,
2013-12-16 22:11:00,42.6,36.2,30.13,South,175,0.0,0.0,78,0.00,SCT,,0.00,0.0,WeatherDisplay:10.37,2013-12-17 03:11:00,
2013-12-16 22:16:00,42.6,36.2,30.13,South,175,0.0,0.0,78,0.00,SCT,,0.00,0.0,WeatherDisplay:10.37,2013-12-17 03:16:00,
2013-12-16 22:26:00,42.5,36.1,30.12,South,175,0.0,0.0,78,0.00,SCT,,0.00,0.0,WeatherDisplay:10.37,2013-12-17 03:26:00,
2013-12-16 22:36:00,42.3,35.9,30.13,South,175,0.0,0.0,78,0.00,SCT,,0.00,0.0,WeatherDisplay:10.37,2013-12-17 03:36:00,
2013-12-16 22:46:00,42.2,35.8,30.13,South,175,0.0,0.0,78,0.00,SCT,,0.00,0.0,WeatherDisplay:10.37,2013-12-17 03:46:00,
2013-12-16 22:51:00,42.1,35.7,30.13,South,175,0.0,0.0,78,0.00,SCT,,0.00,0.0,WeatherDisplay:10.37,2013-12-17 03:51:00,
2013-12-16 22:56:00,42.1,35.7,30.13,South,175,0.0,0.0,78,0.00,SCT,,0.00,0.0,WeatherDisplay:10.37,2013-12-17 03:56:00,
2013-12-16 23:01:00,41.9,35.5,30.13,South,175,0.0,0.0,78,0.00,SCT,,0.00,0.0,WeatherDisplay:10.37,2013-12-17 04:01:00,
2013-12-16 23:11:00,41.8,35.8,30.13,South,175,0.0,0.0,79,0.00,SCT,,0.00,0.0,WeatherDisplay:10.37,2013-12-17 04:11:00,
2013-12-16 23:16:00,41.6,35.6,30.13,South,175,0.0,0.0,79,0.00,SCT,,0.00,0.0,WeatherDisplay:10.37,2013-12-17 04:16:00,
2013-12-16 23:21:00,41.6,35.9,30.13,South,175,0.0,0.0,80,0.00,SCT,,0.00,0.0,WeatherDisplay:10.37,2013-12-17 04:21:00,
2013-12-16 23:26:00,41.6,35.9,30.13,South,175,0.0,0.0,80,0.00,SCT,,0.00,0.0,WeatherDisplay:10.37,2013-12-17 04:26:00,
2013-12-16 23:31:00,41.5,35.8,30.12,South,175,0.0,0.0,80,0.00,SCT,,0.00,0.0,WeatherDisplay:10.37,2013-12-17 04:31:00,
2013-12-16 23:36:00,41.5,35.8,30.12,South,175,0.0,0.0,80,0.00,SCT,,0.00,0.0,WeatherDisplay:10.37,2013-12-17 04:36:00,
2013-12-16 23:41:00,41.5,35.8,30.12,South,175,0.0,0.0,80,0.00,SCT,,0.00,0.0,WeatherDisplay:10.37,2013-12-17 04:41:00,
2013-12-16 23:46:00,41.3,35.9,30.12,South,175,0.0,0.0,81,0.00,SCT,,0.00,0.0,WeatherDisplay:10.37,2013-12-17 04:46:00,
2013-12-16 23:51:00,41.3,35.9,30.11,South,175,0.0,0.0,81,0.00,SCT,,0.00,0.0,WeatherDisplay:10.37,2013-12-17 04:51:00,
2013-12-16 23:56:00,41.2,35.8,30.11,South,175,0.0,0.0,81,0.00,SCT,,0.00,0.0,WeatherDisplay:10.37,2013-12-17 04:56:00,